sat.trackr.live / text

‹ back to catalog

STARLINK-34338

NORAD 64151 · 2025-112F

PAYLOAD ACTIVE UNKNOWN

§ Identity

Operator
Country
US
Launch date
2025-05-27
Launch site
AFWTR
Launch vehicle
Mass (kg)
RCS (m²)

Purposes: comms

External: N2YO · Heavens-Above · Gunter

§ Orbital elements

Epoch: 2026-09-20T21:23:51.809568Z

Period
93.91 min
Inclination
97.2860°
Eccentricity
0.0000589
Mean motion
15.33454452 rev/d
Perigee alt
465.1 km
Apogee alt
465.9 km
Semi-major
6,843.7 km
B*
4.2572e-4
RAAN
310.8867°
Arg perigee
63.8558°
Mean anomaly
296.2745°
Rev number
7,280

§ Raw data

STARLINK-343381 64151U 25112F   26263.89157187  .00013698  00000+0  42572-3 0  99922 64151  97.2860 310.8867 0000589  63.8558 296.2745 15.33454452 72809

JSON: /api/v1/satellites/64151 · /tle

For live sub-satellite position, see the globe view (requires WebGL).

§ Visibility from observer

Set your observer location to see the next 7 days of passes ≥ 10°. The values pass through the URL so the page stays shareable.

No JS? Fill the form by hand. The geolocation button needs JavaScript.